GW6586 Weather Reports


time (UTC)temp
C
wind
direction
speed
KPH
gust
KPH
rain 1hr
cm
rain 24hr
cm
rain mn
cm
humidity
%
barometer
mb
20260509024511 18 80 17.7 32.2 0.00 0.00 0.00 46 1027.0
20260509023019 18 13 14.5 27.4 0.00 0.00 0.00 47 1027.0
20260509021527 18 101 22.5 32.2 0.00 0.00 0.00 47 1027.0
20260509014528 17 61 14.5 33.8 0.00 0.00 0.00 50 1027.3
20260509013026 17 90 24.1 33.8 0.00 0.00 0.00 51 1027.3
20260509011519 16 108 14.5 32.2 0.00 0.00 0.00 52 1027.5
20260509010033 16 86 20.9 32.2 0.00 0.00 0.00 53 1027.4
20260509004520 16 57 16.1 29.0 0.00 0.00 0.00 55 1027.6
20260509001529 15 65 17.7 27.4 0.00 0.00 0.00 56 1027.3
20260509000016 15 82 16.1 25.7 0.00 0.00 0.00 57 1027.3
20260508234522 14 65 12.9 24.1 0.00 0.00 0.00 58 1027.1
20260508233029 14 56 12.9 25.7 0.00 0.00 0.00 58 1027.0
20260508231520 13 63 11.3 19.3 0.00 0.00 0.00 59 1027.0
20260508230027 13 49 9.7 20.9 0.00 0.00 0.00 59 1027.0
20260508224525 13 86 14.5 25.7 0.00 0.00 0.00 58 1026.8
20260508223004 14 91 11.3 24.1 0.00 0.00 0.00 58 1026.7
20260508221512 14 98 12.9 25.7 0.00 0.00 0.00 57 1026.7
20260508220017 14 87 14.5 25.7 0.00 0.00 0.00 58 1026.6
20260508213014 13 74 11.3 17.7 0.00 0.00 0.00 58 1026.6
20260508211519 13 98 6.4 14.5 0.00 0.00 0.00 58 1026.4
20260508210015 13 93 6.4 14.5 0.00 0.00 0.00 58 1026.4
20260508204517 13 103 4.8 12.9 0.00 0.00 0.00 58 1026.4
20260508203019 14 83 8.0 12.9 0.00 0.00 0.00 57 1026.3
20260508201513 14 91 9.7 14.5 0.00 0.00 0.00 56 1026.3
20260508200023 14 94 4.8 16.1 0.00 0.00 0.00 56 1026.3
20260508194507 14 77 8.0 16.1 0.00 0.00 0.00 56 1026.0
20260508193016 15 89 9.7 19.3 0.00 0.00 0.00 55 1026.0
20260508191520 15 89 8.0 17.7 0.00 0.00 0.00 54 1025.9
20260508190010 15 60 8.0 17.7 0.00 0.00 0.00 54 1025.8
20260508184522 15 67 11.3 25.7 0.00 0.00 0.00 53 1025.8
20260508183022 16 111 12.9 24.1 0.00 0.00 0.00 52 1025.9
20260508181516 16 107 16.1 25.7 0.00 0.00 0.00 51 1025.9
20260508180019 16 87 16.1 30.6 0.00 0.00 0.00 51 1025.9
20260508174513 16 95 11.3 27.4 0.00 0.00 0.00 51 1025.9
20260508173017 16 96 11.3 20.9 0.00 0.00 0.00 51 1025.9
20260508171524 16 83 14.5 22.5 0.00 0.00 0.00 51 1025.9
20260508170011 16 86 11.3 22.5 0.00 0.00 0.00 50 1026.0
20260508164519 16 78 9.7 25.7 0.00 0.00 0.00 49 1026.0
20260508163013 16 68 12.9 22.5 0.00 0.00 0.00 48 1026.0
20260508161528 17 95 9.7 22.5 0.00 0.00 0.00 47 1025.9
20260508160003 17 63 16.1 27.4 0.00 0.00 0.00 46 1025.6
20260508153032 17 94 16.1 27.4 0.00 0.00 0.00 45 1025.5
20260508150013 17 78 9.7 24.1 0.00 0.00 0.00 45 1025.9
20260508144503 17 128 11.3 24.1 0.00 0.00 0.00 45 1026.1
20260508143008 17 98 11.3 27.4 0.00 0.00 0.00 46 1026.3
20260508141516 17 84 16.1 25.7 0.00 0.00 0.00 47 1026.2
20260508140006 17 117 14.5 22.5 0.00 0.00 0.00 50 1026.2
20260508134512 17 82 12.9 20.9 0.00 0.00 0.00 51 1026.2
20260508133021 17 101 11.3 19.3 0.00 0.00 0.00 51 1026.2
20260508131508 17 115 11.3 16.1 0.00 0.00 0.00 51 1026.2
20260508130015 17 97 11.3 16.1 0.00 0.00 0.00 51 1026.1
20260508124504 17 126 11.3 16.1 0.00 0.00 0.00 51 1026.1
20260508123020 18 115 9.7 17.7 0.00 0.00 0.00 50 1026.0
20260508121520 18 122 9.7 16.1 0.00 0.00 0.00 50 1026.0
20260508120008 18 112 9.7 17.7 0.00 0.00 0.00 50 1026.0
20260508114514 18 97 6.4 12.9 0.00 0.00 0.00 50 1026.0
20260508113022 18 135 9.7 16.1 0.00 0.00 0.00 49 1025.9
20260508111515 18 123 9.7 14.5 0.00 0.00 0.00 49 1026.0
20260508110029 19 92 9.7 16.1 0.00 0.00 0.00 48 1025.9
20260508104524 19 115 9.7 16.1 0.00 0.00 0.00 48 1026.0
20260508103034 19 91 9.7 14.5 0.00 0.00 0.00 48 1025.9
20260508100009 20 105 9.7 16.1 0.00 0.00 0.00 46 1025.7
20260508094518 20 95 11.3 17.7 0.00 0.00 0.00 45 1025.7
20260508093034 21 140 11.3 22.5 0.00 0.00 0.00 44 1025.6
20260508091514 21 93 12.9 27.4 0.00 0.00 0.00 43 1025.4
20260508090024 21 105 16.1 29.0 0.00 0.00 0.00 42 1025.3
20260508084525 21 111 17.7 27.4 0.00 0.00 0.00 43 1025.3
20260508083013 22 134 20.9 32.2 0.00 0.00 0.00 42 1025.1
20260508081523 22 89 17.7 30.6 0.00 0.00 0.00 42 1025.2
20260508080010 22 128 12.9 22.5 0.00 0.00 0.00 43 1025.1
20260508074518 22 103 9.7 25.7 0.00 0.00 0.00 43 1025.1
20260508073024 22 105 17.7 30.6 0.00 0.00 0.00 43 1025.1
20260508071514 22 90 16.1 30.6 0.00 0.00 0.00 43 1025.2
20260508070023 22 101 19.3 25.7 0.00 0.00 0.00 42 1025.1
20260508064510 22 97 9.7 29.0 0.00 0.00 0.00 43 1025.3
20260508063021 22 111 14.5 27.4 0.00 0.00 0.00 43 1025.5
20260508061523 22 90 19.3 32.2 0.00 0.00 0.00 46 1025.6
20260508054602 22 107 9.7 25.7 0.00 0.00 0.00 47 1026.1
20260508053012 22 37 11.3 27.4 0.00 0.00 0.00 46 1026.2
20260508050024 22 88 14.5 24.1 0.00 0.00 0.00 48 1026.6
20260508044511 21 110 16.1 30.6 0.00 0.00 0.00 48 1026.7
20260508041528 21 86 14.5 24.1 0.00 0.00 0.00 50 1027.1
20260508040014 21 55 12.9 24.1 0.00 0.00 0.00 50 1027.6
20260508034533 21 89 12.9 27.4 0.00 0.00 0.00 51 1028.0
20260508033013 20 88 17.7 29.0 0.00 0.00 0.00 51 1028.4
20260508031519 20 90 14.5 32.2 0.00 0.00 0.00 50 1028.5
20260508030026 20 87 17.7 33.8 0.00 0.00 0.00 52 1028.6